Miscellaneous Local Product
Issued by NWS Hastings, NE

Home | Current Version | Previous Version | Text Only | Print | Product List | Glossary Off
Versions: 1 2 3 4 5 6 7 8 9 10 11 12 13 14 15 16 17 18 19 20 21 22 23 24 25 26 27 28 29 30 31 32 33 34 35 36 37 38 39 40 41 42 43 44 45 46 47 48 49 50

000
AXUS43 KGID 281602
MISGRI

GID CWA HOURLY WEATHER ROUNDUP
NATIONAL WEATHER SERVICE HASTINGS NE
1100 AM CDT TUE MAR 28 2017

NOTE: "FAIR" INDICATES FEW OR NO CLOUDS BELOW 12,000 FEET WITH NO
SIGNIFICANT WEATHER AND/OR OBSTRUCTIONS TO VISIBILITY.

...SOUTH CENTRAL NEBRASKA...

CITY           SKY/WX    TMP DP  RH WIND       PRES   REMARKS
GRAND ISLAND   PTSUNNY   47  42  83 E9        30.08F
HASTINGS       SUNNY     49  42  77 E12       30.07F
KEARNEY        CLOUDY    48  41  76 E13       30.05S
ORD            CLOUDY    47  40  76 SE12      30.06S
YORK           CLOUDY    48  41  76 E10       30.10S
AURORA         CLOUDY    45  45 100 E8        30.09S
LEXINGTON      CLOUDY    46  43  88 E12       30.03S
HOLDREGE       CLOUDY    48  44  85 SE12      30.02S
HEBRON         SUNNY     49  42  74 E10       30.08S

...NEBRASKA PANHANDLE...

CITY           SKY/WX    TMP DP  RH WIND       PRES   REMARKS
CHADRON        RAIN      45  40  82 E12       30.01R
ALLIANCE       LGT RAIN  44  42  93 E14       29.96R FOG
SCOTTSBLUFF    CLOUDY    46  43  89 E15       29.92S
SIDNEY         CLOUDY    44  43  96 SE17G23   29.91S

...WESTERN AND NORTH CENTRAL NEBRASKA...

CITY           SKY/WX    TMP DP  RH WIND       PRES   REMARKS
VALENTINE      CLOUDY    46  43  89 E10       30.05S
AINSWORTH      CLOUDY    45  44  99 SE10      30.07S
ONEILL         CLOUDY    46  44  92 CALM      30.11R
BROKEN BOW     CLOUDY    44  42  93 SE10      30.04S FOG
IMPERIAL       LGT RAIN  45  43  93 SE13      29.96R FOG
NORTH PLATTE   CLOUDY    44  43  96 E12       30.02R FOG
MCCOOK         CLOUDY    46  45  96 E14       29.99S FOG

...EASTERN NEBRASKA...

CITY           SKY/WX    TMP DP  RH WIND       PRES   REMARKS
NORFOLK        MOSUNNY   47  40  76 CALM      30.11R
SO SIOUX CITY  SUNNY     50  43  77 E5        30.13S
TEKAMAH        CLOUDY    50  41  71 E10       30.12R
COLUMBUS       CLOUDY    45  39  81 E7        30.13R
ALBION         CLOUDY    43  42  94 SE3       30.11R FOG
OMAHA EPPLEY   CLOUDY    47  42  83 CALM      30.12S
OFFUTT AFB     CLOUDY    47  40  76 E8        30.12R
MILLARD        CLOUDY    49  42  75 E5        30.12R
LINCOLN        CLOUDY    48  40  73 E6        30.12S
NEBRASKA CITY  CLOUDY    47  37  68 E6        30.11S
BEATRICE       CLOUDY    49  41  74 E9        30.10S
FALLS CITY     CLOUDY    49  43  80 NE7       30.10S

...NORTHERN KANSAS...

CITY           SKY/WX    TMP DP  RH WIND       PRES   REMARKS
GOODLAND       LGT RAIN  46  45  96 SE20G26   29.89F FOG
HILL CITY      CLOUDY    47  47 100 E10       30.00S FOG
NORTON         CLOUDY    45  43  93 E9        29.99  FOG
PHILLIPSBURG   CLOUDY    48  48 100 E14       30.02F
HAYS             N/A     50  45  83 E15       29.99F
RUSSELL        CLOUDY    52  46  80 E15       29.99F
CONCORDIA      CLOUDY    49  45  86 E7        30.06S
SALINA         PTSUNNY   55  45  68 E12       30.05S
TOPEKA         CLOUDY    51  47  86 E7        30.09R



USA.gov is the U.S. government's official web portal to all federal, state and local government web resources and services.